| time (UTC) | temp F | wind direction | speed MPH | gust MPH | rain 1hr in | rain 24hr in | rain mn in | humidity % | barometer mb |
| 20260506050553 | 38 | 335 | 0.0 | 4.0 | 0.00 | 0.18 | 0.23 | 81 | 1006.1 |
| 20260506043853 | 38 | 0 | 0.0 | 0.0 | 0.00 | 0.18 | 0.23 | 82 | 1005.9 |
| 20260506042953 | 38 | 36 | 0.0 | 1.0 | 0.00 | 0.18 | 0.23 | 83 | 1005.9 |
| 20260506041153 | 37 | 36 | 0.0 | 3.0 | 0.00 | 0.18 | 0.23 | 84 | 1005.7 |
| 20260506035353 | 37 | 37 | 0.0 | 1.0 | 0.00 | 0.18 | 0.23 | 84 | 1005.9 |
| 20260506033553 | 37 | 37 | 0.0 | 2.0 | 0.00 | 0.18 | 0.23 | 84 | 1005.5 |
| 20260506032653 | 37 | 37 | 0.0 | 1.0 | 0.00 | 0.18 | 0.23 | 84 | 1005.3 |
| 20260506031753 | 37 | 37 | 0.0 | 3.0 | 0.00 | 0.18 | 0.23 | 84 | 1005.3 |
| 20260506030852 | 37 | 37 | 0.0 | 1.0 | 0.00 | 0.18 | 0.23 | 84 | 1005.3 |
| 20260506025953 | 37 | 37 | 0.0 | 2.0 | 0.00 | 0.18 | 0.23 | 84 | 1005.2 |
| 20260506025052 | 37 | 37 | 1.0 | 3.0 | 0.00 | 0.19 | 0.23 | 85 | 1005.3 |
| 20260506024152 | 37 | 37 | 0.0 | 3.0 | 0.00 | 0.19 | 0.23 | 84 | 1005.1 |
| 20260506023252 | 37 | 36 | 1.0 | 3.0 | 0.00 | 0.19 | 0.23 | 85 | 1005.0 |
| 20260506022352 | 37 | 35 | 1.0 | 3.0 | 0.00 | 0.19 | 0.23 | 85 | 1005.0 |
| 20260506021452 | 36 | 0 | 0.0 | 0.0 | 0.00 | 0.19 | 0.23 | 85 | 1004.9 |
| 20260506015652 | 35 | 347 | 2.0 | 3.0 | 0.00 | 0.19 | 0.23 | 87 | 1004.8 |
| 20260506014752 | 35 | 347 | 1.0 | 3.0 | 0.00 | 0.20 | 0.23 | 87 | 1004.8 |
| 20260506012953 | 35 | 348 | 1.0 | 3.0 | 0.00 | 0.20 | 0.23 | 87 | 1004.6 |
| 20260506012052 | 35 | 347 | 1.0 | 3.0 | 0.00 | 0.20 | 0.23 | 86 | 1004.6 |
| 20260506011600 | 41 | 263 | 3.0 | 7.0 | 0.00 | 0.20 | 0.23 | 70 | 1004.7 |
| 20260505180852 | 41 | 259 | 3.0 | 6.0 | 0.00 | 0.23 | 0.23 | 70 | 1002.4 |
| 20260505175952 | 41 | 254 | 3.0 | 8.0 | 0.00 | 0.23 | 0.23 | 69 | 1002.3 |
| 20260505175051 | 41 | 240 | 3.0 | 6.0 | 0.00 | 0.23 | 0.23 | 69 | 1002.3 |
| 20260505173251 | 42 | 258 | 3.0 | 7.0 | 0.00 | 0.23 | 0.23 | 68 | 1002.3 |
| 20260505171451 | 42 | 259 | 4.0 | 8.0 | 0.00 | 0.23 | 0.23 | 67 | 1002.2 |
| 20260505170551 | 42 | 246 | 5.0 | 8.0 | 0.00 | 0.23 | 0.23 | 68 | 1002.2 |
| 20260505165651 | 42 | 251 | 4.0 | 8.0 | 0.00 | 0.23 | 0.23 | 68 | 1002.2 |
| 20260505164751 | 42 | 233 | 3.0 | 6.0 | 0.00 | 0.23 | 0.23 | 67 | 1002.1 |
| 20260505163851 | 43 | 198 | 2.0 | 5.0 | 0.00 | 0.23 | 0.23 | 66 | 1002.1 |
| 20260505162951 | 44 | 151 | 0.0 | 2.0 | 0.00 | 0.23 | 0.23 | 64 | 1002.1 |
| 20260505161151 | 45 | 150 | 1.0 | 3.0 | 0.00 | 0.23 | 0.23 | 63 | 1002.0 |
| 20260505160251 | 45 | 164 | 1.0 | 2.0 | 0.00 | 0.23 | 0.23 | 63 | 1002.0 |
| 20260505152651 | 44 | 234 | 2.0 | 4.0 | 0.00 | 0.23 | 0.23 | 64 | 1002.0 |
| 20260505151751 | 43 | 243 | 4.0 | 8.0 | 0.00 | 0.23 | 0.23 | 64 | 1001.9 |
| 20260505150851 | 43 | 233 | 4.0 | 8.0 | 0.00 | 0.23 | 0.23 | 64 | 1001.8 |
| 20260505140551 | 43 | 243 | 7.0 | 13.0 | 0.00 | 0.24 | 0.23 | 69 | 1001.8 |
| 20260505130251 | 42 | 244 | 6.0 | 11.0 | 0.00 | 0.25 | 0.23 | 79 | 1001.6 |
| 20260505124451 | 41 | 237 | 5.0 | 11.0 | 0.00 | 0.27 | 0.23 | 84 | 1001.6 |
| 20260505123551 | 40 | 241 | 5.0 | 11.0 | 0.00 | 0.28 | 0.23 | 87 | 1001.6 |
| 20260505122651 | 39 | 245 | 6.0 | 11.0 | 0.00 | 0.28 | 0.23 | 86 | 1001.5 |
| 20260505121751 | 39 | 252 | 8.0 | 13.0 | 0.00 | 0.28 | 0.23 | 87 | 1001.5 |
| 20260505120851 | 39 | 248 | 8.0 | 14.0 | 0.00 | 0.28 | 0.23 | 88 | 1001.5 |
| 20260505115951 | 39 | 247 | 9.0 | 16.0 | 0.01 | 0.28 | 0.23 | 89 | 1001.4 |
| 20260505115051 | 38 | 251 | 9.0 | 14.0 | 0.01 | 0.28 | 0.23 | 90 | 1001.5 |
| 20260505114151 | 37 | 248 | 7.0 | 13.0 | 0.01 | 0.28 | 0.23 | 92 | 1001.5 |
| 20260505112351 | 36 | 255 | 10.0 | 16.0 | 0.03 | 0.28 | 0.23 | 91 | 1001.3 |
| 20260505111451 | 36 | 254 | 16.0 | 25.0 | 0.04 | 0.28 | 0.23 | 90 | 1001.3 |
| 20260505110551 | 37 | 249 | 14.0 | 30.0 | 0.04 | 0.28 | 0.23 | 86 | 1001.1 |
| 20260505102050 | 36 | 248 | 10.0 | 19.0 | 0.06 | 0.26 | 0.20 | 89 | 1000.9 |
| 20260505100251 | 39 | 245 | 7.0 | 12.0 | 0.06 | 0.24 | 0.19 | 86 | 1000.5 |
| 20260505095351 | 38 | 244 | 7.0 | 14.0 | 0.05 | 0.24 | 0.17 | 88 | 1000.6 |
| 20260505094451 | 37 | 244 | 4.0 | 10.0 | 0.04 | 0.23 | 0.17 | 91 | 1000.6 |
| 20260505093551 | 36 | 263 | 3.0 | 7.0 | 0.02 | 0.22 | 0.16 | 91 | 1000.6 |
| 20260505092650 | 36 | 246 | 6.0 | 14.0 | 0.02 | 0.21 | 0.14 | 91 | 1000.5 |
| 20260505091751 | 35 | 248 | 8.0 | 16.0 | 0.02 | 0.20 | 0.13 | 91 | 1000.6 |
| 20260505090851 | 35 | 256 | 11.0 | 20.0 | 0.03 | 0.20 | 0.13 | 90 | 1000.6 |
| 20260505085951 | 35 | 249 | 8.0 | 18.0 | 0.05 | 0.20 | 0.13 | 89 | 1000.4 |
| 20260505085050 | 36 | 256 | 7.0 | 15.0 | 0.05 | 0.20 | 0.13 | 87 | 1000.3 |
| 20260505083250 | 37 | 244 | 6.0 | 10.0 | 0.05 | 0.20 | 0.12 | 90 | 1000.1 |
| 20260505082350 | 36 | 242 | 9.0 | 16.0 | 0.05 | 0.20 | 0.11 | 88 | 1000.2 |
| 20260505081450 | 38 | 248 | 9.0 | 17.0 | 0.05 | 0.19 | 0.10 | 87 | 1000.2 |
| 20260505080550 | 38 | 253 | 4.0 | 12.0 | 0.03 | 0.17 | 0.09 | 92 | 999.9 |
| 20260505075650 | 35 | 213 | 1.0 | 4.0 | 0.02 | 0.17 | 0.08 | 93 | 999.9 |
| 20260505074750 | 35 | 228 | 0.0 | 3.0 | 0.02 | 0.17 | 0.08 | 92 | 999.9 |
| 20260505073850 | 35 | 248 | 0.0 | 1.0 | 0.02 | 0.17 | 0.08 | 93 | 999.8 |
| 20260505072050 | 34 | 106 | 2.0 | 6.0 | 0.01 | 0.17 | 0.06 | 93 | 999.8 |
| 20260505071150 | 33 | 70 | 2.0 | 5.0 | 0.01 | 0.16 | 0.06 | 92 | 999.9 |
| 20260505070250 | 33 | 37 | 2.0 | 6.0 | 0.01 | 0.17 | 0.06 | 92 | 999.9 |
| 20260505065350 | 33 | 234 | 0.0 | 2.0 | 0.01 | 0.17 | 0.06 | 92 | 999.8 |
| 20260505064450 | 33 | 235 | 1.0 | 3.0 | 0.01 | 0.17 | 0.06 | 92 | 999.7 |
| 20260505063552 | 33 | 241 | 4.0 | 9.0 | 0.01 | 0.17 | 0.06 | 91 | 999.8 |
| 20260505062652 | 34 | 244 | 9.0 | 16.0 | 0.01 | 0.17 | 0.06 | 91 | 999.9 |
| 20260505060850 | 35 | 239 | 14.0 | 22.0 | 0.00 | 0.17 | 0.05 | 90 | 999.4 |
| 20260505055950 | 36 | 242 | 14.0 | 26.0 | 0.00 | 0.17 | 0.05 | 88 | 999.3 |
| 20260505055050 | 36 | 242 | 12.0 | 21.0 | 0.00 | 0.17 | 0.05 | 89 | 999.2 |